Tracking 20369 objects as of 18-Feb-2020
HD Live streaming from Space Station
objects crossing your sky now

COSMOS 2133

Track COSMOS 2133 now!
COSMOS 2133 is classified as:


NORAD ID: 21111
Int'l Code: 1991-010A
Perigee: 35,777.2 km
Apogee: 35,810.6 km
Inclination: 14.6 °
Period: 1,436.1 minutes
Semi major axis: 42164 km
RCS: 12.1 m2 (large)
Launch date: February 14, 1991
Source: Commonwealth of Independent States (former USSR) (CIS)
Launch site: TYURATAM MISSILE AND SPACE COMPLEX (TTMTR)
aabbcc
Your satellite tracking list
Your tracking list is empty




NASA's NSSDC Master Catalog

Two Line Element Set (TLE):
1 21111U 91010A   20048.59291434 -.00000173 +00000-0 +00000-0 0  9990
2 21111 014.6368 000.8258 0003960 063.3302 016.8082 01.00271396106263
Source of the keplerian elements: AFSPC